Hourly Data Report for August 06, 2020

TORONTO CITY
ONTARIO
Current Station Operator: ECCC - MSC

43°40'00.000" N
79°24'00.000" W
112.50 m
6158355
71508
XTO

Download Data

Hourly Data (August 2020)
Hourly Data Report for August 6, 2020
TIME
LST
Temp Definition
°C
Dew Point Definition
°C
Rel Hum Definition
%
Precip. Amount Definition
mm

Wind Dir Definition
10's deg

Wind Spd Definition
km/h
Visibility Definition
km
Stn Press Definition
kPa
Hmdx Definition


Wind Chill Definition


Weather Definition


00:00 16.0 8.4 61 0.0       100.60     LegendNANA
01:00 15.4 8.9 65 0.0       100.60     LegendNANA
02:00 15.5 9.2 66 0.0       100.62     LegendNANA
03:00 15.4 10.1 71 0.0       100.64     LegendNANA
04:00 14.7 9.7 72 0.0       100.64     LegendNANA
05:00 14.4 10.1 75 0.0       100.69     LegendNANA
06:00 15.5 11.0 75 0.0       100.74     LegendNANA
07:00 16.9 10.3 65 0.0       100.77     LegendNANA
08:00 19.3 10.2 55 0.0       100.81     LegendNANA
09:00 21.0 9.7 48 0.0       100.80     LegendNANA
10:00 21.7 8.9 44 0.0       100.81     LegendNANA
11:00 22.1 9.3 44 0.0       100.81     LegendNANA
12:00 22.0 9.2 44 0.0       100.78     LegendNANA
13:00 22.5 7.7 39 0.0       100.77     LegendNANA
14:00 23.0 7.4 37 0.0       100.72     LegendNANA
15:00 23.5 6.9 34 0.0       100.67     LegendNANA
16:00 23.3 7.1 35 0.0       100.64     LegendNANA
17:00 23.0 8.2 39 0.0       100.62     LegendNANA
18:00 22.2 7.4 38 0.0       100.60     LegendNANA
19:00 21.6 7.0 39 0.0       100.63     LegendNANA
20:00 20.4 8.3 46 0.0       100.66     LegendNANA
21:00 19.8 10.1 54 0.0       100.69     LegendNANA
22:00 19.8 10.6 55 0.0       100.64     LegendNANA
23:00 19.5 10.9 57 0.0       100.66     LegendNANA

Notes on Data Quality.

Legend

  • E = Estimated
  • M = Missing
  • NA = Not Available*
  • [empty] = Indicates an unobserved value
Date modified: